Location: Bay Shore Mobile Home Park
(38.5762°N, 75.0841°W)
Time: 08:24:34
(UTC+00:00)

OAO 2 Rocket - Pass Details

Date: 15 November 2025
Orbit: 669 x 734 km, 35.0° (Epoch: 04 December)

Event Time Altitude Azimuth Distance (km) Brightness Sun altitude
Rises 22:46:47 0° 258° (WSW) 3,044 8.8 -11.9°
Reaches altitude 10° 22:49:11 10° 254° (WSW) 2,139 7.4 -12.3°
Maximum altitude 22:54:06 57° 176° (S) 821 3.7 -13.3°
Enters shadow 22:57:48 18° 102° (ESE) 1,702 4.8 -14.0°
